Wind_Speed
8 7 5 3 3 5 7 10 12 14 15 16 18 20 22 23 26 29 31 34 35 37 38 41 42 40 40 39 38 37 36 36 42 47 47 47 46 44 38 35 33 35 39
9 7 4 4 5 8 10 13 15 18 20 21 22 24 27 30 33 36 39 42 44 45 44 43 44 44 45 45 43 42 42 41 43 48 47 48 49 47 46 42 38 35 35
10 8 7 7 8 11 15 18 21 23 26 27 29 30 32 35 37 40 43 46 47 48 48 47 45 44 46 46 46 46 46 45 44 47 49 46 48 49 49 48 45 41 38
13 12 11 10 12 15 18 22 24 26 29 30 32 33 36 37 40 43 45 47 47 47 47 48 49 47 46 44 45 45 43 43 43 43 44 42 45 48 48 49 50 47 44
17 17 16 16 16 18 21 24 26 29 31 32 33 35 36 38 41 43 44 45 47 48 48 49 49 47 45 41 39 43 41 39 39 38 37 33 35 35 40 42 46 46 48
21 22 22 20 19 21 24 26 29 31 33 33 35 36 37 40 41 41 43 46 47 48 50 49 48 45 42 37 32 31 32 35 39 39 40 37 38 33 30 34 40 40 44
24 26 26 25 24 26 27 28 30 33 34 35 36 36 38 40 40 41 43 45 47 47 47 45 43 39 38 38 36 30 30 29 31 36 44 47 42 40 36 35 37 40 46
29 29 29 28 28 28 29 31 33 34 34 36 35 37 39 40 40 42 43 44 44 44 42 40 38 37 34 29 30 32 32 32 31 31 34 39 40 39 39 42 45 39 41
32 31 31 30 30 30 32 34 34 34 35 36 36 38 40 40 39 41 42 42 43 42 39 35 33 34 31 27 30 34 37 39 37 34 35 37 38 38 38 38 42 41 51
30 31 31 30 30 31 34 34 33 34 36 36 36 37 38 38 37 38 38 37 39 39 36 35 35 29 28 29 32 36 41 43 43 42 41 41 40 39 34 33 39 45 43
28 29 30 29 30 31 34 34 34 34 35 35 37 37 37 36 36 37 36 30 32 35 37 39 38 35 32 31 32 37 43 43 45 47 50 48 45 41 36 42 42 39 47
30 30 29 28 29 33 33 33 33 33 34 34 36 37 37 36 35 36 33 25 27 32 38 40 41 36 36 38 38 38 38 40 44 46 49 51 48 48 49 47 44 41 44
31 30 29 29 31 32 32 33 32 31 31 33 35 36 37 35 34 34 31 31 29 31 35 36 36 37 36 35 38 37 37 41 43 42 45 46 45 47 47 46 46 46 46
32 30 29 31 31 31 31 31 31 29 29 30 33 34 35 35 34 32 33 36 36 35 39 41 37 38 41 35 31 31 30 31 31 36 41 43 42 41 42 43 44 43 43
31 30 30 31 31 30 29 29 28 26 27 29 31 31 32 32 30 27 29 32 34 35 36 39 36 34 34 33 31 31 30 31 33 30 33 34 35 38 41 40 40 40 41
32 31 31 31 29 29 29 28 24 24 23 25 26 22 23 24 23 24 25 27 28 30 31 32 33 31 31 31 32 33 31 31 32 31 32 33 33 35 38 41 42 42 43
32 31 31 29 28 28 27 27 29 23 20 22 24 22 21 21 20 20 22 23 25 26 25 26 28 29 30 30 31 32 33 32 31 30 31 32 32 34 37 40 42 39 39
30 31 29 28 28 27 26 26 26 27 28 21 18 22 19 21 20 18 20 23 23 23 25 26 27 29 30 31 31 32 32 32 31 30 30 31 32 33 34 36 36 37 29
29 27 27 28 27 26 24 24 24 25 25 24 19 17 18 20 18 17 19 21 23 23 25 26 27 29 30 31 32 32 32 32 32 31 29 28 29 30 32 32 32 28 28
27 27 27 27 25 23 23 23 23 23 22 21 20 19 19 21 19 18 18 20 21 22 24 26 26 28 29 30 32 32 32 33 33 32 31 29 26 25 26 26 26 27 22
26 26 26 25 23 22 23 22 21 21 20 20 18 17 18 19 19 19 20 20 21 22 24 25 26 27 28 30 31 32 32 34 35 33 32 30 28 27 25 22 20 17 16
26 25 24 24 22 22 21 21 20 20 20 19 18 16 17 17 18 18 19 19 20 21 23 24 25 25 26 27 30 32 32 34 38 35 32 30 27 25 24 21 18 15 13
26 25 24 23 22 21 20 20 20 20 19 18 19 19 18 18 18 18 19 20 21 21 21 23 25 25 24 25 26 27 29 31 38 35 30 27 25 23 21 19 15 12 12
25 23 22 21 20 20 19 19 20 20 20 19 19 20 20 21 20 21 21 21 22 22 21 23 24 24 24 24 24 25 26 28 35 31 25 23 21 19 17 15 13 11 9
22 21 20 19 19 20 20 20 20 19 20 20 20 20 20 21 20 21 21 21 21 21 21 21 22 23 23 22 21 24 26 26 32 27 23 20 18 16 14 12 10 8 6
18 18 18 18 19 19 19 19 19 19 19 19 19 19 20 20 20 20 20 21 21 21 20 20 20 20 20 20 19 22 24 24 27 25 23 20 17 15 13 12 9 7 6
Wind_Direction
216 217 224 249 308 336 341 339 337 334 331 327 325 324 324 324 324 324 325 323 321 319 315 312 310 308 303 299 296 292 289 286 285 286 288 291 292 293 294 293 290 279 272
226 233 254 287 319 331 332 331 330 328 326 323 321 321 322 324 324 324 323 322 320 318 315 311 309 307 304 302 298 293 290 288 287 287 286 285 285 287 289 289 288 285 280
236 240 253 282 302 316 322 324 324 324 324 322 321 321 322 322 322 321 320 319 317 316 314 312 309 305 302 300 298 296 294 291 286 287 288 286 282 282 283 283 283 282 281
238 244 257 276 295 308 316 320 320 320 320 318 317 318 319 320 319 319 318 316 314 312 311 309 307 305 302 298 295 295 295 292 290 288 288 288 286 283 281 282 283 283 282
242 249 260 271 286 301 310 314 314 314 314 313 313 314 315 316 317 318 316 314 312 311 309 307 305 304 300 294 289 288 288 288 288 287 284 284 282 282 281 285 283 284 282
247 253 259 268 280 292 300 307 310 310 309 309 311 312 314 315 317 317 314 313 312 311 310 308 307 307 304 298 291 284 277 276 278 282 283 279 277 279 280 281 283 283 284
250 255 260 265 273 283 290 301 306 306 306 309 310 311 313 315 317 315 314 313 312 311 310 310 309 306 305 304 301 293 289 282 274 274 273 271 278 275 275 274 278 275 273
255 257 260 265 271 278 288 299 303 303 305 308 308 311 314 317 317 315 314 314 312 311 312 313 310 311 311 304 303 301 300 297 294 290 287 288 287 288 285 277 264 270 269
260 260 262 263 269 280 289 295 298 299 303 306 309 313 315 316 316 316 317 315 313 314 315 316 318 316 313 302 300 298 296 294 293 285 281 279 277 276 275 279 276 272 268
268 262 260 262 272 283 288 293 295 298 303 306 308 311 313 316 319 317 318 317 314 316 319 319 321 307 303 299 295 294 294 296 298 299 297 297 296 293 290 279 275 272 272
260 258 259 265 276 285 289 291 293 298 301 304 309 312 314 316 318 319 320 317 316 319 315 312 314 309 302 299 296 293 290 296 294 290 289 285 281 284 284 288 286 275 267
258 259 262 272 282 287 286 289 292 298 301 305 307 311 314 317 320 322 327 314 311 308 310 311 312 309 303 299 296 295 293 290 287 285 286 284 281 280 281 286 283 277 271
260 261 267 277 283 284 286 287 292 297 301 305 308 312 315 318 322 329 329 329 315 312 312 311 306 304 302 296 294 299 295 289 286 284 282 281 281 284 285 283 280 278 280
261 264 271 278 280 281 282 285 292 298 302 306 309 312 316 323 326 326 331 327 318 319 323 318 304 298 298 301 303 309 318 318 305 293 288 285 285 284 280 280 276 275 275
265 270 276 280 280 280 281 287 292 298 302 308 312 315 315 313 322 321 317 318 321 316 307 302 310 314 312 312 311 315 320 324 324 316 307 301 298 296 290 286 276 275 269
269 273 278 280 281 281 284 287 291 298 304 305 302 296 300 304 314 317 322 319 319 318 322 322 321 321 322 322 321 320 323 325 329 321 313 304 301 299 298 297 286 273 266
271 274 279 280 280 281 285 291 298 299 300 301 299 300 306 310 316 323 321 324 330 331 332 335 335 335 333 330 328 328 327 329 330 328 317 309 304 304 305 299 290 272 263
273 276 278 279 279 282 285 290 296 301 305 305 297 304 313 312 319 324 326 328 328 335 344 348 347 347 344 340 336 333 332 333 335 331 328 321 313 308 307 307 307 304 266
274 276 276 275 276 279 283 288 293 296 299 304 306 301 306 306 316 325 325 327 333 340 344 347 350 350 349 347 344 341 339 337 336 333 329 325 324 321 314 311 310 308 295
273 272 269 271 273 278 283 286 289 292 296 300 307 310 310 309 321 329 331 332 337 342 342 343 346 347 347 348 347 345 343 343 338 334 330 327 323 319 313 309 306 310 305
272 271 272 270 274 275 277 280 284 288 292 296 304 307 310 314 319 325 329 333 337 339 339 340 342 343 345 347 348 345 346 346 343 335 332 329 326 323 318 314 304 302 298
272 270 268 272 272 272 275 277 280 283 287 293 299 302 304 308 311 318 321 325 329 332 333 335 336 339 342 345 347 346 346 348 345 338 332 330 328 326 324 320 312 307 309
272 271 270 268 268 268 269 272 274 277 283 289 293 297 300 303 307 312 314 317 320 323 327 329 330 334 339 341 346 348 347 350 344 337 331 330 332 331 330 329 329 327 323
273 271 268 266 264 265 266 267 270 275 279 284 288 292 298 301 305 308 308 312 312 315 321 322 323 328 332 337 344 346 350 357 344 339 337 334 336 338 337 338 339 336 325
280 275 269 264 261 264 266 267 269 273 277 283 287 291 296 298 304 305 307 311 312 316 319 319 321 323 327 332 335 342 346 3 345 347 349 348 346 347 349 352 357 358 353
283 278 274 271 270 269 268 269 271 274 279 282 286 292 294 298 303 305 311 312 315 318 320 323 323 323 325 330 332 340 345 1 346 358 1 3 4 6 9 11 13 21 29
Height
1536 1536 1537 1538 1539 1538 1538 1539 1538 1538 1537 1536 1534 1533 1530 1528 1525 1522 1519 1517 1515 1513 1512 1508 1505 1503 1499 1497 1495 1493 1489 1487 1476 1471 1470 1468 1466 1465 1467 1467 1465 1464 1465
1534 1534 1534 1535 1535 1536 1536 1536 1535 1534 1532 1530 1528 1526 1523 1520 1517 1513 1510 1508 1505 1503 1501 1498 1495 1491 1487 1484 1483 1481 1477 1475 1469 1459 1461 1459 1457 1458 1455 1455 1456 1455 1454
1531 1532 1532 1533 1533 1532 1532 1532 1530 1528 1527 1524 1521 1519 1517 1513 1510 1506 1503 1500 1497 1493 1489 1485 1483 1480 1476 1474 1471 1466 1463 1461 1458 1451 1445 1448 1448 1448 1444 1443 1442 1443 1444
1529 1529 1529 1529 1530 1529 1528 1527 1526 1524 1522 1519 1516 1513 1510 1507 1503 1499 1496 1492 1488 1485 1481 1475 1471 1468 1465 1463 1459 1455 1452 1448 1446 1442 1436 1436 1436 1437 1436 1432 1429 1431 1430
1524 1524 1525 1525 1525 1525 1524 1523 1522 1520 1517 1514 1511 1508 1505 1501 1497 1493 1488 1484 1479 1474 1470 1465 1460 1456 1453 1450 1447 1444 1443 1440 1436 1432 1427 1427 1424 1426 1425 1424 1419 1418 1415
1519 1519 1520 1520 1520 1520 1520 1518 1517 1514 1511 1509 1506 1502 1499 1495 1491 1486 1481 1475 1470 1463 1457 1453 1448 1443 1439 1437 1435 1434 1434 1431 1427 1424 1419 1418 1415 1418 1418 1415 1412 1411 1405
1512 1513 1514 1514 1515 1514 1514 1512 1510 1508 1505 1502 1499 1496 1492 1487 1483 1478 1473 1466 1460 1453 1447 1441 1437 1434 1430 1426 1423 1421 1419 1418 1418 1417 1410 1407 1405 1406 1407 1405 1405 1403 1397
1506 1507 1508 1508 1508 1508 1507 1505 1503 1501 1498 1495 1492 1488 1483 1479 1475 1469 1463 1457 1450 1444 1438 1433 1428 1424 1422 1418 1415 1412 1410 1408 1407 1404 1401 1396 1395 1394 1394 1394 1393 1390 1385
1500 1501 1501 1502 1502 1501 1500 1499 1497 1494 1491 1488 1484 1479 1475 1471 1466 1460 1454 1447 1440 1434 1429 1426 1423 1418 1414 1413 1410 1405 1402 1398 1397 1395 1392 1389 1387 1387 1387 1385 1380 1380 1369
1493 1494 1495 1495 1495 1495 1493 1491 1489 1486 1483 1479 1476 1472 1467 1462 1457 1452 1445 1438 1431 1426 1423 1419 1416 1413 1411 1408 1404 1398 1392 1388 1385 1380 1376 1374 1373 1372 1373 1373 1371 1366 1362
1487 1487 1488 1489 1488 1488 1486 1484 1481 1479 1475 1472 1467 1463 1459 1455 1449 1443 1437 1432 1426 1419 1416 1412 1409 1405 1403 1400 1396 1390 1383 1379 1374 1369 1363 1360 1358 1357 1357 1357 1356 1354 1350
1480 1481 1482 1482 1481 1480 1478 1476 1474 1471 1467 1463 1458 1454 1450 1446 1441 1435 1429 1426 1423 1417 1410 1405 1400 1396 1392 1389 1386 1381 1377 1372 1365 1360 1355 1350 1348 1346 1344 1342 1341 1339 1337
1473 1474 1474 1474 1473 1472 1470 1469 1466 1463 1459 1455 1450 1445 1440 1437 1433 1427 1423 1419 1416 1410 1405 1399 1395 1390 1385 1379 1374 1370 1365 1358 1353 1347 1341 1337 1335 1333 1330 1327 1325 1322 1319
1466 1467 1467 1466 1465 1464 1462 1461 1458 1455 1451 1447 1442 1437 1432 1427 1424 1420 1415 1411 1407 1402 1396 1389 1383 1379 1374 1368 1363 1359 1353 1347 1341 1335 1329 1326 1324 1321 1317 1315 1310 1309 1304
1459 1459 1459 1458 1457 1456 1455 1453 1450 1448 1444 1439 1434 1429 1425 1421 1419 1417 1413 1407 1402 1397 1388 1379 1373 1367 1361 1357 1353 1348 1343 1338 1331 1326 1320 1316 1312 1309 1304 1302 1299 1296 1292
1450 1450 1450 1449 1448 1447 1445 1444 1443 1439 1436 1433 1430 1426 1422 1417 1414 1412 1407 1402 1396 1386 1378 1372 1366 1361 1355 1349 1344 1339 1335 1329 1324 1317 1312 1307 1302 1299 1294 1290 1286 1283 1279
1443 1443 1442 1440 1440 1439 1437 1434 1432 1432 1430 1427 1423 1419 1415 1411 1408 1405 1401 1395 1387 1382 1375 1369 1363 1356 1350 1345 1339 1333 1327 1323 1317 1311 1305 1300 1296 1291 1286 1280 1275 1271 1268
1435 1435 1434 1433 1432 1431 1429 1427 1425 1422 1419 1420 1418 1411 1408 1404 1401 1398 1393 1387 1384 1378 1371 1365 1359 1353 1346 1340 1334 1328 1322 1316 1310 1305 1299 1293 1288 1284 1279 1273 1267 1263 1258
1426 1426 1426 1425 1424 1423 1421 1419 1418 1415 1413 1410 1409 1407 1403 1399 1396 1392 1388 1383 1378 1373 1367 1362 1356 1350 1344 1337 1331 1324 1318 1311 1306 1300 1294 1288 1283 1278 1272 1268 1263 1259 1255
1418 1417 1416 1416 1416 1415 1413 1412 1411 1409 1406 1404 1401 1399 1397 1392 1389 1386 1383 1378 1374 1369 1364 1358 1353 1347 1341 1335 1328 1321 1314 1308 1301 1295 1289 1283 1278 1273 1268 1263 1258 1254 1251
1410 1409 1409 1407 1407 1406 1406 1405 1403 1402 1400 1398 1395 1393 1391 1387 1384 1380 1377 1374 1369 1365 1360 1355 1350 1345 1339 1333 1326 1319 1312 1306 1299 1292 1286 1280 1274 1268 1263 1258 1254 1250 1248
1399 1400 1399 1399 1399 1398 1398 1397 1396 1395 1394 1392 1390 1388 1385 1383 1380 1376 1373 1370 1366 1362 1358 1352 1348 1343 1337 1331 1324 1317 1310 1303 1297 1290 1283 1277 1271 1265 1259 1254 1250 1246 1244
1391 1391 1391 1391 1391 1390 1390 1390 1389 1389 1387 1386 1384 1382 1380 1378 1375 1372 1369 1366 1362 1358 1354 1349 1345 1339 1335 1329 1324 1318 1310 1302 1296 1289 1281 1274 1268 1263 1258 1253 1248 1245 1243
1383 1383 1383 1383 1383 1383 1383 1383 1382 1382 1381 1379 1378 1376 1374 1372 1369 1366 1364 1360 1357 1354 1349 1345 1341 1336 1331 1326 1321 1316 1310 1302 1297 1287 1280 1273 1268 1262 1258 1253 1249 1246 1244
1376 1376 1376 1377 1376 1376 1376 1376 1376 1375 1374 1373 1371 1369 1368 1366 1363 1361 1358 1355 1352 1348 1344 1341 1337 1332 1327 1323 1319 1314 1308 1301 1296 1287 1280 1273 1268 1263 1259 1255 1251 1249 1247
1371 1371 1371 1371 1370 1370 1370 1370 1369 1368 1367 1366 1365 1363 1361 1359 1357 1355 1352 1349 1346 1342 1339 1335 1332 1328 1324 1319 1316 1311 1306 1300 1296 1288 1281 1275 1269 1265 1261 1258 1255 1252 1251